Artem, Russia
Current Conditions -  °F | °C
As of 5:30 AM on Friday 19 Dec 2014 (Local Time) from UHWW Reporting Station
Smoke Smoke  
Wind Chill: -13°   Ceiling: Unl
Heat Index: -13°   Visibility: 3mi
Dew Point: -18°   Wind: 0mph
Humidity: 77%   Direction: NA
Pressure: 30.45"   Gusts: NA
Location:  43.38°N, 132.19°E
Report Text: UHWW 181930Z 00000MPS 5000 FU SKC M25/M28 Q1031 NOSIG RMKQFE772/1029 25CLRD60
Loading
Personal Weather Stations






























Interactive Weather Map New forecast layout! Learn more

10-Day Weather Forecast

Advertisements
Track Severe Weather on mobile